www.pogodaiklimat.ru

ПОГОДА в Ильичёвске

  • Прогноз погоды в Ильичёвске
  • Монитор погоды в Ильичёвске
  • Климат города

АРХИВ ПОГОДЫ в Ильичёвске

Время (UTC), дата Ветер
(напр.,м/с)
 
Видим.   Явления Облачность Т
(С)
Тd
(С)
f
(%)
Тe
(С)
Тes
(С)
Комфортность P
(гПа)
Po
(гПа)
Тmin
(С)
Tmax
(С)
R
(мм)
S
(см)
15 15.04 Ю 8 13 км 9/0
[Ci fib]
+9.7 +8.5 92 +5 +6 1010.9 1011.0
18 15.04 Ю 5 10 км 8/8 570 м
[St]
+9.7 +8.6 93 +6 +6 1012.8 1013.0 +11.4
21 15.04 Ю 6 10 км {ливн. осадки} 8/8 630 м
[Cb cap]
+9.4 +8.6 95 +6 +6 1012.9 1013.0
00 16.04 Ю 2 4000 м дымка {ливн. осадки} 10/10 660 м
[Sc]
+9.0 +8.6 97 +7 +7 1012.9 1013.0
03 16.04 ЮВ 2 4000 м дымка 8/8 600 м
[St]
+8.8 +8.0 95 +7 +7 1013.1 1013.0
06 16.04 ЮВ 2 8000 м дымка 10/10 700 м
[Sc]
+9.5 +9.0 97 +8 +8 1014.6 1015.0 +8.8 0.0
09 16.04 ЮВ 2 12 км 10/10 660 м
[Sc]
+10.4 +9.2 92 +9 +9 1015.5 1016.0
12 16.04 ЮВ 4 5000 м дымка 10/10 540 м
[St]
+9.9 +9.3 96 +7 +7 1016.3 1016.0
15 16.04 штиль 0 8000 м дымка 10/10 700 м
[Sc]
+10.0 +9.2 95 +9 +9 1016.1 1016.0
18 16.04 штиль 0 10 км 10/0
[Ac und]
+10.3 +8.6 89 +10 +10 1016.7 1017.0 +11.0
21 16.04 СВ 1 10 км 8/0
[Ac trans]
+10.4 +8.5 88 +10 +10 1016.9 1017.0
00 17.04 СЗ 2 10 км 8/0
[Ci fib]
+9.1 +7.8 92 +7 +7 1017.1 1017.0
03 17.04 СВ 2 10 км 10/0
[Ac und]
+10.2 +8.5 89 +9 +9 1016.9 1017.0
06 17.04 СВ 4 17 км 3/1 600 м
[Cu hum Ac trans]
+12.3 +9.9 85 +10 +13 1017.5 1018.0 +9.0
09 17.04 СВ 4 27 км 5/0
[Cc]
+14.7 +8.6 67 +14 +22 1017.8 1018.0
12 17.04 СВ 4 29 км 8/0
[Cs]
+18.7 +7.0 46 +19 +26 1016.0 1016.0
15 17.04 СВ 2 28 км 8/8 800 м
[Sc Ci fib]
+16.5 +7.6 56 +17 +17 1014.5 1015.0
18 17.04 СВ 1 10 км 3/3 600 м
[Sc]
+15.6 +6.4 54 +16 +16 1014.5 1015.0 +19.6
21 17.04 В 4 10 км 5/0
[Ci fib]
+12.8 +8.4 75 +11 +11 1013.6 1014.0
00 18.04 СВ 4 10 км 3/0
[Ci fib]
+13.5 +8.8 73 +12 +12 1012.1 1012.0
03 18.04 СВ 5 10 км 3/0
[Cs]
+12.3 +7.6 73 +10 +10 1010.9 1011.0
06 18.04 СВ 6 22 км 8/0
[Ac trans Ci fib]
+13.2 +8.0 71 +11 +13 1010.1 1010.0 +12.1
09 18.04 СВ 5 27 км 3/0
[Ac cast]
+16.8 +9.7 63 +16 +22 1008.9 1009.0
12 18.04 СВ 5 29 км 5/0
[Ci fib]
+17.4 +10.2 63 +17 +23 1006.9 1007.0
15 18.04 ЮВ 2 27 км 8/0
[Ci fib]
+13.8 +9.7 76 +13 +15 1005.9 1006.0
18 18.04 Ю 6 10 км слабый ливневой дождь 9/9 570 м
[Cb cap]
+12.7 +9.5 81 +10 +10 1006.4 1006.0 +18.2 0.0
21 18.04 ЮВ 4 10 км 5/0
[Ci fib]
+11.3 +9.7 90 +9 +9 1007.8 1008.0
15 19.04 штиль 0 21 км 8/0
[Ci fib]
+13.9 +9.0 72 +14 +16 1014.0 1014.0
18 19.04 штиль 0 10 км 6/0
[Ci fib]
+13.1 +6.7 65 +13 +13 1014.2 1014.0 +14.7
21 19.04 З 1 10 км 8/0
[Ac und]
+13.7 +3.8 51 +14 +14 1013.3 1013.0
00 20.04 СЗ 2 10 км ясно +10.9 +8.5 85 +10 +10 1012.5 1013.0
03 20.04 СЗ 3 10 км 8/0
[Ci fib]
+11.3 +5.9 69 +10 +10 1012.4 1012.0
06 20.04 З 2 20 км 8/0
[Ci fib]
+15.8 +8.1 60 +16 +21 1012.0 1012.0 +9.8
09 20.04 З 1 24 км 8/0
[Ci fib]
+20.4 +5.1 37 +22 +37 комфорт 1011.8 1012.0
12 20.04 Ю 7 30 км 9/3 600 м
[Cu med, cong Ci fib]
+16.2 +9.9 66 +15 +17 1011.7 1012.0
15 20.04 Ю 6 28 км 6/3 600 м
[Cu med, cong Ci sp]
+14.3 +10.3 77 +12 +13 1011.3 1011.0
18 20.04 ЮЗ 3 10 км 6/0
[Ac trans Ci fib]
+13.0 +9.7 80 +12 +12 1012.1 1012.0 +20.9
21 20.04 ЮЗ 1 10 км ясно +12.2 +9.9 86 +12 +12 1012.2 1012.0
00 21.04 З 2 10 км ясно +12.9 +10.4 85 +12 +12 1011.8 1012.0
03 21.04 З 1 10 км 3/0
[Ac und]
+11.8 +8.5 80 +12 +12 1012.3 1012.0
06 21.04 штиль 0 20 км 3/0
[Ci sp]
+14.8 +11.2 79 +15 +22 1013.3 1013.0 +11.0
09 21.04 Ю 5 26 км 8/5 600 м
[Cu med, cong As trans Ci sp]
+15.2 +12.1 82 +14 +17 1013.8 1014.0
12 21.04 Ю 6 27 км 8/4 600 м
[Cu med, cong As trans Ci fib]
+16.1 +11.1 72 +15 +17 1014.2 1014.0
15 21.04 Ю 6 27 км 4/0
[Cs]
+15.6 +10.9 74 +14 +15 1014.5 1015.0
21 21.04 ЮЗ 2 10 км 3/0
[Ci fib]
+12.6 +10.6 88 +12 +12 1015.5 1016.0
00 22.04 Ю 1 4000 м дымка 8/8 360 м
[St]
+11.1 +10.3 95 +11 +11 1016.1 1016.0
03 22.04 Ю 1 4000 м дымка ясно +10.9 +10.5 97 +10 +10 1016.6 1017.0
06 22.04 ЮВ 2 16 км 3/0
[Ci sp]
+13.2 +12.6 96 +12 +18 1017.2 1017.0 +10.4
09 22.04 Ю 1 20 км 5/0
[Ci fib]
+14.3 +12.6 90 +15 +30 опасность
простуды
1018.1 1018.0
12 22.04 Ю 2 26 км 8/0
[Ci sp]
+14.0 +11.8 87 +13 +24 опасность
простуды
1017.9 1018.0
15 22.04 Ю 1 26 км 8/0
[Ci fib]
+13.0 +10.9 87 +13 +16 1017.4 1017.0
18 22.04 штиль 0 10 км 3/0
[Ci fib]
+11.9 +10.5 91 +11 +11 1017.5 1018.0 +15.2
21 22.04 штиль 0 10 км 4/0
[Ci fib]
+12.0 +10.4 90 +11 +11 1017.9 1018.0
00 23.04 штиль 0 10 км 3/0
[Ci fib]
+11.7 +10.5 92 +11 +11 1018.0 1018.0
03 23.04 штиль 0 10 км ясно +11.4 +10.4 94 +11 +11 1017.5 1018.0
06 23.04 Ю 1 10 км 8/4 600 м
[Sc Ac cast]
+12.8 +12.4 97 +13 +15 1018.9 1019.0 +11.0

 

Обсудить погоду в Ильичёвске на МЕТЕОФОРУМЕ

 

Местоположение метеостанции Ильичевск (Одесская область, Украина): широта 46.40 долгота 30.70 высота над уровнем моря 52 м.

В архиве по умолчанию представлена погода в Ильичёвске за последнюю неделю. Архивные данные за месяц целиком и за предыдущие месяцы, начиная с января 2011 года, Вы можете получить, выбрав интересующий диапазон дат из раскрывающегося списка и нажав кнопку "Ввод!".

Внимание! Время в таблицах - всемирное. Для получения местного времени необходимо прибавить поправку, которая в Ильичёвске равна 2 ч.

Ветер - указаны скорость ветра в м/с - средняя за 10 мин, порывы в срок и между сроками (в фигурных скобках) и направление, откуда дует ветер: С - северный, СВ - северо-восточный, В - восточный, ЮВ - юго-восточный, Ю - южный, ЮЗ - юго-западный, З - западный, СЗ - северо-западный.
Видимость - горизонтальная дальность видимости в метрах или километрах. При видимости от 1 до 10 км при отсутствии осадков обычно наблюдается дымка, при ухудшении видимости до 1 км и менее - туман. В сухую погоду видимость может ухудшаться дымом, пылью или мглою.
Явления - указаны атсосферные явления, наблюдавшиеся в срок или в последний час перед сроком; фигурными скобками обозначены явления, наблюдавшиеся между сроками (за 1-3 часа до срока); квадратными скобками обозначены град или гололедные отложения с указанием их диаметра в мм.
Облачность - указаны через наклонную черту общая и нижняя облачность в баллах и высота нижней границы облаков в метрах; квадратными скобками обозначены формы облаков: Ci - перистые, Cs - перисто-слоистые, Cc - перисто-кучевые, Ac - высококучевые, As - высокослоистые, Sc - слоисто-кучевые, Ns - слоисто-дождевые, Cu - кучевые, Cb - кучево-дождевые. Подробнее классификацию облаков см. в Атласе облаков (PDF).
T - Температура воздуха - температура, измеренная на высоте 2 м над землей.
Td - Температура точки росы - температура, при понижении до которой содержащийся в воздухе водяной пар достигнет насыщения.
f - Относительная влажность воздуха - влажноcть воздуха, измеренная на высоте 2 м над землей.
Te - Эффективная температура - температура, которую ощущает одетый по сезону человек в тени. Характеристика душности погоды. При расчете учитывается влияние влажности воздуха и скорости ветра на теплоощущения человека.
Tes - Эффективная температура на солнце - температура, которую ощущает человек, с поправкой на солнечный нагрев. Характеристика знойности погоды. Зависит от высоты солнца над горизонтом, облачности и скорости ветра. Ночью, в пасмурную погоду, а также при ветре 12 м/с и более поправка равна нулю.
P - Атмосферное давление - приведенное к уровню моря атмосферное давление.
Po - Атмосферное давление - измеренное на уровне метеостанции атмосферное давление.
Tmin - Минимальная температура - минимум температуры воздуха на высоте 2 м над землей.
Tmax - Максимальная температура - максимум температуры воздуха на высоте 2 м над землей.
R - Количество осадков - Количество выпавших осадков, мм.
S - Снежный покров - Высота снежного покрова, см.